Clovis, NM

2:03 AM MDT on September 21, 2017 (GMT -0600)
Clovis Municipal

Weather History for KCVN - October, 2012

Change the Weather History Date:

Monday, October 22, 2012

  Actual Average Record
Temperature  
Mean Temperature 68 °F -  
Max Temperature 80 °F 69 °F 87 °F (1921)
Min Temperature 55 °F 42 °F 26 °F (1996)
Cooling Degree Days 2    
Growing Degree Days 18 (Base 50)    
Moisture  
Dew Point 36 °F    
Average Humidity 32    
Maximum Humidity 51    
Minimum Humidity 18    
Precipitation  
Precipitation 0.00 in - - ()
Sea Level Pressure  
Sea Level Pressure 29.95 in    
Wind  
Wind Speed 13 mph (WSW)    
Max Wind Speed 26 mph    
Max Gust Speed 34 mph    
Visibility 10 miles    
Events      
Averages and records for this station are not official NWS values.
T = Trace of Precipitation, MM = Missing Value Source: NWS Daily Summary

Daily Weather History Graph

Daily Weather History Graph

Search for Another Location

Airport or City:

Trip Planner

Search our weather history database for the weather conditions in past years. The results will help you decide how hot, cold, wet, or windy it might be!

Date:

Astronomy

Oct. 22, 2012 Rise Set
Actual Time 7:04 AM MDT 6:08 PM MDT
Civil Twilight 6:38 AM MDT 6:34 PM MDT
Nautical Twilight 6:09 AM MDT 7:03 PM MDT
Astronomical Twilight 5:39 AM MDT 7:32 PM MDT
Moon 2:02 PM MDT (10/22) 12:10 AM MDT (10/22)
Length of Visible Light 11h 55m
Length of Day
11h 04m
First Quarter, 57% of the Moon is Illuminated
Oct 22
First Quarter
Oct 29
Full
Nov 6
Last Quarter
Nov 13
New
Nov 20
First Quarter

Hourly Weather History & Observations

Time (MDT) Temp. Dew Point Humidity Pressure Visibility Wind Dir Wind Speed Gust Speed Precip Events Conditions
12:15 AM 60.8 °F 33.8 °F 36% 29.93 in 10.0 mi West 9.2 mph - N/A   Clear
12:35 AM 62.6 °F 33.8 °F 34% 29.94 in 10.0 mi WSW 11.5 mph - N/A   Clear
12:55 AM 60.8 °F 33.8 °F 36% 29.95 in 10.0 mi SW 13.8 mph - N/A   Clear
1:15 AM 60.8 °F 33.8 °F 36% 29.95 in 10.0 mi WSW 15.0 mph - N/A   Clear
1:35 AM 62.6 °F 33.8 °F 34% 29.93 in 10.0 mi West 13.8 mph - N/A   Clear
1:55 AM 64.4 °F 35.6 °F 34% 29.94 in 10.0 mi WSW 10.4 mph - N/A   Clear
2:15 AM 62.6 °F 35.6 °F 37% 29.94 in 10.0 mi WSW 10.4 mph - N/A   Clear
2:55 AM 64.4 °F 37.4 °F 37% 29.93 in 10.0 mi West 11.5 mph - N/A   Clear
3:15 AM 66.2 °F 37.4 °F 35% 29.93 in 10.0 mi West 12.7 mph 18.4 mph N/A   Clear
3:35 AM 64.4 °F 37.4 °F 37% 29.95 in 10.0 mi SW 15.0 mph - N/A   Clear
3:55 AM 66.2 °F 37.4 °F 35% 29.95 in 10.0 mi WSW 26.5 mph 34.5 mph N/A   Scattered Clouds
4:15 AM 66.2 °F 39.2 °F 37% 29.93 in 10.0 mi SW 15.0 mph - N/A   Partly Cloudy
4:35 AM 64.4 °F 37.4 °F 37% 29.93 in 10.0 mi SW 17.3 mph 21.9 mph N/A   Partly Cloudy
4:55 AM 64.4 °F 37.4 °F 37% 29.92 in 10.0 mi WSW 11.5 mph - N/A   Partly Cloudy
5:15 AM 62.6 °F 35.6 °F 37% 29.92 in 10.0 mi SSW 12.7 mph - N/A   Clear
5:35 AM 60.8 °F 37.4 °F 42% 29.92 in 10.0 mi WSW 11.5 mph - N/A   Clear
5:55 AM 60.8 °F 35.6 °F 39% 29.93 in 10.0 mi West 11.5 mph - N/A   Clear
6:15 AM 57.2 °F 35.6 °F 44% 29.93 in 10.0 mi WSW 10.4 mph - N/A   Clear
6:35 AM 55.4 °F 35.6 °F 47% 29.93 in 10.0 mi WSW 10.4 mph - N/A   Clear
6:55 AM 55.4 °F 35.6 °F 47% 29.94 in 10.0 mi WSW 10.4 mph - N/A   Clear
7:15 AM 57.2 °F 37.4 °F 48% 29.95 in 10.0 mi WSW 11.5 mph - N/A   Clear
7:35 AM 55.4 °F 37.4 °F 51% 29.95 in 10.0 mi WSW 11.5 mph - N/A   Clear
7:55 AM 57.2 °F 37.4 °F 48% 29.96 in 10.0 mi WSW 12.7 mph - N/A   Clear
8:15 AM 57.2 °F 37.4 °F 48% 29.97 in 10.0 mi WSW 11.5 mph - N/A   Clear
8:35 AM 60.8 °F 39.2 °F 45% 29.98 in 10.0 mi WSW 12.7 mph - N/A   Clear
8:55 AM 62.6 °F 39.2 °F 42% 29.98 in 10.0 mi WSW 12.7 mph - N/A   Clear
9:15 AM 66.2 °F 41.0 °F 40% 29.98 in 10.0 mi WSW 15.0 mph - N/A   Clear
9:35 AM 69.8 °F 41.0 °F 35% 29.99 in 10.0 mi WSW 15.0 mph - N/A   Clear
9:55 AM 71.6 °F 39.2 °F 31% 29.99 in 10.0 mi WSW 18.4 mph 23.0 mph N/A   Clear
10:15 AM 71.6 °F 39.2 °F 31% 29.99 in 10.0 mi WSW 19.6 mph - N/A   Clear
10:35 AM 73.4 °F 39.2 °F 29% 29.99 in 10.0 mi WSW 20.7 mph 25.3 mph N/A   Clear
10:55 AM 75.2 °F 39.2 °F 27% 29.99 in 10.0 mi West 17.3 mph 23.0 mph N/A   Clear
11:15 AM 75.2 °F 37.4 °F 25% 29.99 in 10.0 mi WSW 18.4 mph 24.2 mph N/A   Clear
11:35 AM 78.8 °F 37.4 °F 23% 29.99 in 10.0 mi West 20.7 mph 25.3 mph N/A   Clear
11:55 AM 78.8 °F 35.6 °F 21% 29.98 in 10.0 mi West 18.4 mph 24.2 mph N/A   Clear
12:15 PM 78.8 °F 35.6 °F 21% 29.98 in 10.0 mi West 16.1 mph 21.9 mph N/A   Clear
12:35 PM 78.8 °F 33.8 °F 20% 29.97 in 10.0 mi West 16.1 mph 23.0 mph N/A   Clear
12:55 PM 80.6 °F 33.8 °F 18% 29.96 in 10.0 mi West 13.8 mph 18.4 mph N/A   Clear
1:15 PM 80.6 °F 33.8 °F 18% 29.95 in 10.0 mi West 18.4 mph 23.0 mph N/A   Clear
1:35 PM 80.6 °F 33.8 °F 18% 29.95 in 10.0 mi SW 19.6 mph 24.2 mph N/A   Clear
1:55 PM 80.6 °F 35.6 °F 20% 29.94 in 10.0 mi WSW 15.0 mph 20.7 mph N/A   Clear
2:15 PM 80.6 °F 35.6 °F 20% 29.93 in 10.0 mi SW 16.1 mph 21.9 mph N/A   Clear
2:35 PM 80.6 °F 33.8 °F 18% 29.93 in 10.0 mi SW 18.4 mph 25.3 mph N/A   Clear
2:55 PM 80.6 °F 35.6 °F 20% 29.93 in 10.0 mi SW 16.1 mph 26.5 mph N/A   Clear
3:15 PM 80.6 °F 35.6 °F 20% 29.92 in 10.0 mi SW 19.6 mph 25.3 mph N/A   Clear
3:35 PM 80.6 °F 35.6 °F 20% 29.92 in 10.0 mi SW 13.8 mph 20.7 mph N/A   Clear
3:55 PM 80.6 °F 35.6 °F 20% 29.92 in 10.0 mi SW 12.7 mph - N/A   Clear
4:15 PM 80.6 °F 35.6 °F 20% 29.91 in 10.0 mi SW 15.0 mph - N/A   Clear
4:35 PM 80.6 °F 35.6 °F 20% 29.92 in 10.0 mi South 15.0 mph - N/A   Clear
4:55 PM 78.8 °F 35.6 °F 21% 29.92 in 10.0 mi SW 15.0 mph - N/A   Clear
5:15 PM 78.8 °F 35.6 °F 21% 29.92 in 10.0 mi SW 15.0 mph - N/A   Clear
5:35 PM 77.0 °F 35.6 °F 22% 29.92 in 10.0 mi SSW 12.7 mph - N/A   Clear
5:55 PM 75.2 °F 33.8 °F 22% 29.92 in 10.0 mi SSW 13.8 mph - N/A   Clear
6:15 PM 71.6 °F 33.8 °F 25% 29.93 in 10.0 mi SSW 10.4 mph - N/A   Clear
6:35 PM 69.8 °F 33.8 °F 27% 29.93 in 10.0 mi SSW 10.4 mph - N/A   Clear
6:55 PM 66.2 °F 33.8 °F 30% 29.94 in 10.0 mi SSW 10.4 mph - N/A   Clear
7:15 PM 66.2 °F 33.8 °F 30% 29.95 in 10.0 mi SSW 10.4 mph - N/A   Clear
7:55 PM 62.6 °F 33.8 °F 34% 29.95 in 10.0 mi SW 10.4 mph - N/A   Clear
8:15 PM 62.6 °F 33.8 °F 34% 29.95 in 10.0 mi SW 11.5 mph - N/A   Clear
8:35 PM 62.6 °F 33.8 °F 34% 29.96 in 10.0 mi SW 11.5 mph - N/A   Clear
8:55 PM 62.6 °F 33.8 °F 34% 29.96 in 10.0 mi SW 10.4 mph - N/A   Clear
9:15 PM 60.8 °F 33.8 °F 36% 29.96 in 10.0 mi SW 12.7 mph - N/A   Clear
9:35 PM 62.6 °F 33.8 °F 34% 29.96 in 10.0 mi SW 11.5 mph - N/A   Clear
9:55 PM 60.8 °F 33.8 °F 36% 29.96 in 10.0 mi SW 12.7 mph - N/A   Clear
10:15 PM 60.8 °F 33.8 °F 36% 29.96 in 10.0 mi SW 12.7 mph - N/A   Clear
10:35 PM 60.8 °F 33.8 °F 36% 29.96 in 10.0 mi SW 12.7 mph - N/A   Clear
10:55 PM 59.0 °F 33.8 °F 39% 29.96 in 10.0 mi SW 11.5 mph - N/A   Clear
11:15 PM 57.2 °F 33.8 °F 41% 29.96 in 10.0 mi WSW 10.4 mph - N/A   Clear
11:35 PM 55.4 °F 33.8 °F 44% 29.96 in 10.0 mi WSW 10.4 mph - N/A   Clear
11:55 PM 55.4 °F 33.8 °F 44% 29.96 in 10.0 mi WSW 10.4 mph - N/A   Clear